Погода в Полчин-Здруе

Польша     53°46′03″N   16°05′56″E
темп.,
°C
ветер,
м/с
пор.,
м/с
влажн.,
%
обл.,
%
осадки,
мм/ч
давл.,
гПа
погр.,
м
17 сентября, пт
пт1723:00+15ююз4985100 0.1 1011356
02:00+14зюз4993100 0.5 1010433
05:00+14юз4894100 0.4 1009488
08:00+14зюз489698 0.7 1009434
11:00+17з567677 0.8 1009860
14:00+16з678399 1.1 1010715
17:00+13зюз51092100 0.4 1010592
20:00+13зюз479799 1.6 1010417
18 сентября, сб
сб1823:00+14з359789 0.3 1011286
02:00+13сз2498100 0.4 1011234
05:00+13св479582 0.7 1012414
08:00+12ссв4892100 0.8 1013521
11:00+13св6882100 0.1 1015901
14:00+15св6762100 0.1 10161131
17:00+15ссв77549 0.0 10161257
20:00+10ссв59731 0.0 1018341
19 сентября, вс
вс1923:00+8ссв34830 0.0 101878
02:00+7ссв34831 0.0 101856
05:00+7св238115 0.0 101833
08:00+9св39714 0.0 1018362
11:00+13св57525 0.0 10181316
14:00+16ссв56435 0.0 10171589
17:00+14ссв66465 0.0 10171415
20:00+9св49725 0.0 1019224
20 сентября, пн
пн2023:00+7св348385 0.0 102064
02:00+11с2462100 0.0 101993
05:00+10св3679100 0.0 1020227
08:00+10всв2780100 0.1 1020419
11:00+12в347369 0.3 1021727
14:00+14в2357100 0.6 10201211
17:00+13всв3353100 0.1 10201066
20:00+10св486499 0.1 1021311
21 сентября, вт
вт2123:00+7всв338468 0.0 102350
02:00+8в1280100 0.0 102371
05:00+8вюв1179100 0.0 102321
08:00+10ссз1169100 0.0 102379
11:00+11зсз1162100 0.0 1024245
14:00+13ссз2253100 0.1 10241283
17:00+13с445468 0.3 10241275
20:00+8с34785 0.3 102560